Regional Weather Roundup
Issued by NWS Jackson, KY

Home | Current Version | Previous Version | Text Only | Print | Product List | Glossary Off
Versions: 1 2 3 4 5 6 7 8 9 10 11 12 13 14 15 16 17 18 19 20 21 22 23 24 25 26 27 28 29 30 31 32 33 34 35 36 37 38 39 40 41 42 43 44 45 46 47 48 49 50

000
ASUS43 KJKL 220605
RWRJKL

EAST KENTUCKY HOURLY WEATHER ROUNDUP
NATIONAL WEATHER SERVICE JACKSON KY
200 AM EDT WED OCT 22 2014

NOTE: "FAIR" INDICATES FEW OR NO CLOUDS BELOW 12,000 FEET WITH
NO SIGNIFICANT WEATHER AND/OR OBSTRUCTIONS TO VISIBILITY.

* THESE REPORTS ARE NOT UNDER NWS QUALITY CONTROL AND MAY NOT
  REPORT WEATHER SUCH AS PRECIPITATION AND FOG.

KYZ079-080-083-085-087-088-110-112-115-119-120-220700
...EASTERN KENTUCKY...

CITY           SKY/WX    TMP DP  RH WIND       PRES   REMARKS
JACKSON        CLOUDY    45  41  86 CALM      30.13S
6HR MIN TEMP:  44; 6HR MAX TEMP:  50; 6HR PCP:  0.01;

LONDON         CLOUDY    49  41  74 N6        30.13S
6HR MIN TEMP:  49; 6HR MAX TEMP:  54;

SOMERSET*      CLOUDY    48  41  76 NE8       30.15S
MONTICELLO*    CLOUDY    50  43  77 CALM      30.15S
6HR MIN TEMP:  49; 6HR MAX TEMP:  53;

WILLIAMSBURG*  CLOUDY    48  41  76 CALM      30.12F
MIDDLESBORO*   MOCLDY    48  41  75 N5        30.12S
6HR MIN TEMP:  46; 6HR MAX TEMP:  53;

HARLAN APT*    CLOUDY    46  41  81 N8        30.10S
BLACK MTN*       N/A     36  36 100 VRB9        N/A  WCI  29
PIKEVILLE APT* CLOUDY    45  41  87 N3        30.11S
BIG SANDY*     CLOUDY    46  40  82 NE6       30.12S
6HR MIN TEMP:  46; 6HR MAX TEMP:  50;

MOREHEAD APT*  PTCLDY    43  39  87 NW5       30.17S
$$

KYZ035-036-041-042-044-050-067-078-099-220700
...CENTRAL KENTUCKY...

CITY           SKY/WX    TMP DP  RH WIND       PRES   REMARKS
MT STERLING*   PTCLDY    43  39  87 NE3       30.17S
FLEMING/MASON* CLOUDY    45  39  80 N5        30.17S
DANVILLE*      CLEAR     43  41  93 NE3       30.17S
RICHMOND*      MOCLDY    46  41  81 NE5       30.15S
LEXINGTON      CLEAR     46  40  79 NE8       30.17R
6HR MIN TEMP:  46; 6HR MAX TEMP:  53;

FRANKFORT      PTCLDY    46  41  82 N6        30.17R
6HR MIN TEMP:  46; 6HR MAX TEMP:  53;

$$

KYZ091>093-OHZ055-061-077-WVZ005-015-034-035-042-220700
...SOUTHERN OHIO/WEST VIRGINIA...

CITY           SKY/WX    TMP DP  RH WIND       PRES   REMARKS
COVINGTON      CLOUDY    48  35  60 NE13      30.18R
COLUMBUS       CLOUDY    44  40  85 N10       30.14S
DAYTON         CLOUDY    45  38  76 N10       30.20S
WILMINGTON     CLOUDY    44  37  76 N13       30.17R
HUNTINGTON     CLOUDY    45  41  86 NW3       30.12S
CHARLESTON     CLOUDY    46  42  86 NW7       30.09S
PINEVILLE*     CLOUDY    47  45  95 MISG      30.11F
BECKLEY        LGT RAIN  42  39  89 NW10      30.04S
BLUEFIELD      LGT RAIN  43  39  86 VRB3      30.04S
$$

VAZ002-007-008-TNZ017-027-036-066-071-220700
...SOUTHWEST VIRGINIA/EAST TENNESSEE...

CITY           SKY/WX    TMP DP  RH WIND       PRES   REMARKS
WISE*          DRIZZLE   43  41  93 N9        30.09S
JONESVILLE*    CLOUDY    46  41  81 CALM      30.12S
ABINGDON*      CLOUDY    48  40  75 NW5       30.06F
BRISTOL        CLOUDY    49  40  71 NW6       30.07F
KNOXVILLE      CLEAR     48  41  76 N7        30.09S
OAK RIDGE      CLEAR     45  41  86 CALM      30.12S
CROSSVILLE     CLEAR     45  38  76 N3        30.11F
NASHVILLE      CLEAR     51  43  74 N5        30.14F
$$

...KEY TO REMARKS...
VSB - VISIBILITY IN MILES
WCI - WIND CHILL INDEX
HX  - HEAT INDEX

$$



USA.gov is the U.S. government's official web portal to all federal, state and local government web resources and services.